This is the latest recevied weather packets stored in our database for station/object SR9WXZ. If no packets are shown the sender has not sent any weather packets the latest 1 day(s).
| Time | Temp. | Humidity | Pressure | Rain* | Wind** | Luminosity | Snow |
|---|---|---|---|---|---|---|---|
| 1778008700 | 20° C | 100% | 0 hPa | - | 0.89 m/s, 185° | - | - |
| 1778008400 | 20° C | 100% | 0 hPa | - | 0.89 m/s, 178° | - | - |
| 1778008099 | 20° C | 100% | 0 hPa | - | 0.89 m/s, 161° | - | - |
| 1778007799 | 20.56° C | 100% | 0 hPa | - | 1.34 m/s, 161° | - | - |
| 1778007499 | 20.56° C | 100% | 0 hPa | - | 2.24 m/s, 152° | - | - |
| 1778007199 | 20.56° C | 100% | 0 hPa | - | 1.79 m/s, 161° | - | - |
| 1778006898 | 20.56° C | 100% | 0 hPa | - | 1.34 m/s, 165° | - | - |
| 1778006598 | 21.11° C | 100% | 0 hPa | - | 1.34 m/s, 152° | - | - |
| 1778005998 | 21.11° C | 100% | 0 hPa | - | 1.79 m/s, 155° | - | - |
| 1778005698 | 21.11° C | 100% | 0 hPa | - | 2.68 m/s, 153° | - | - |
| 1778005398 | 21.67° C | 100% | 0 hPa | - | 2.68 m/s, 150° | - | - |
| 1778005097 | 21.11° C | 100% | 0 hPa | - | 1.79 m/s, 155° | - | - |
| 1778004797 | 21.67° C | 100% | 0 hPa | - | 3.13 m/s, 150° | - | - |
| 1778004497 | 21.67° C | 100% | 0 hPa | - | 3.58 m/s, 148° | - | - |
| 1778004197 | 21.67° C | 100% | 0 hPa | - | 3.13 m/s, 147° | - | - |
| 1778003897 | 22.22° C | 100% | 0 hPa | - | 3.58 m/s, 156° | - | - |
| 1778003597 | 22.22° C | 100% | 0 hPa | - | 4.47 m/s, 158° | - | - |
| 1778003284 | 22.22° C | 100% | 0 hPa | - | 4.47 m/s, 154° | - | - |
| 1778002983 | 22.22° C | 100% | 0 hPa | - | 5.36 m/s, 155° | - | - |
| 1778002683 | 22.78° C | 100% | 0 hPa | - | 4.47 m/s, 150° | - | - |
| 1778002383 | 22.78° C | 100% | 0 hPa | - | 5.36 m/s, 153° | - | - |
| 1778002091 | 22.78° C | 100% | 0 hPa | - | 6.26 m/s, 153° | - | - |
| 1778001782 | 22.78° C | 100% | 0 hPa | - | 6.26 m/s, 144° | - | - |
| 1778001482 | 23.33° C | 100% | 0 hPa | - | 6.71 m/s, 151° | - | - |
| 1778001182 | 23.33° C | 100% | 0 hPa | - | 4.47 m/s, 151° | - | - |
* Rain since midnight (hover to see other rain measurements)
** Current wind speed in m/s (hover to see current wind gust speed)